Jackson, MN

5:20 AM CDT on March 24, 2017 (GMT -0500)
Jackson Municipal

Weather History for KMJQ - December, 2012

Change the Weather History Date:

Wednesday, December 12, 2012

  Actual Average Record
Temperature  
Mean Temperature 33 °F -  
Max Temperature 42 °F 30 °F 51 °F (1998)
Min Temperature 24 °F 16 °F -11 °F (2000)
Degree Days  
Heating Degree Days 32    
Moisture  
Dew Point 21 °F    
Average Humidity 58    
Maximum Humidity 86    
Minimum Humidity 46    
Precipitation  
Precipitation 0.03 in - - ()
Sea Level Pressure  
Sea Level Pressure 29.85 in    
Wind  
Wind Speed 13 mph (South)    
Max Wind Speed 21 mph    
Max Gust Speed 29 mph    
Visibility 10 miles    
Events      
Averages and records for this station are not official NWS values.
T = Trace of Precipitation, MM = Missing Value Source: NWS Daily Summary

Daily Weather History Graph

Daily Weather History Graph

Search for Another Location

Airport or City:

Trip Planner

Search our weather history database for the weather conditions in past years. The results will help you decide how hot, cold, wet, or windy it might be!

Date:

Astronomy

Dec. 12, 2012 Rise Set
Actual Time 7:44 AM CST 4:43 PM CST
Civil Twilight 7:11 AM CST 5:16 PM CST
Nautical Twilight 6:35 AM CST 5:52 PM CST
Astronomical Twilight 6:00 AM CST 6:27 PM CST
Moon 6:49 AM CST (12/12) 4:21 PM CST (12/12)
Length of Visible Light 10h 04m
Length of Day
8h 58m
Waning Crescent, 1% of the Moon is Illuminated
Dec 12
Waning Crescent
Dec 13
New
Dec 19
First Quarter
Dec 28
Full
Jan 4
Last Quarter

Hourly Weather History & Observations

Time (CST) Temp. Windchill Dew Point Humidity Pressure Visibility Wind Dir Wind Speed Gust Speed Precip Events Conditions
12:13 AM 24.8 °F 15.3 °F 21.2 °F 86% 29.91 in 10.0 mi SSE 9.2 mph - N/A   Clear
12:33 AM 24.8 °F 16.1 °F 19.4 °F 80% 29.90 in 10.0 mi SSE 8.1 mph - N/A   Clear
12:53 AM 24.8 °F 16.1 °F 19.4 °F 80% 29.90 in 10.0 mi SSE 8.1 mph - N/A   Clear
1:13 AM 24.8 °F 16.1 °F 19.4 °F 80% 29.89 in 10.0 mi South 8.1 mph - N/A   Clear
1:33 AM 26.6 °F 16.8 °F 19.4 °F 74% 29.89 in 10.0 mi South 10.4 mph - N/A   Clear
1:53 AM 24.8 °F 15.3 °F 17.6 °F 74% 29.89 in 10.0 mi South 9.2 mph - N/A   Clear
2:13 AM 26.6 °F 16.8 °F 17.6 °F 69% 29.88 in 10.0 mi South 10.4 mph - N/A   Clear
2:33 AM 26.6 °F 16.8 °F 17.6 °F 69% 29.88 in 10.0 mi South 10.4 mph - N/A   Clear
2:53 AM 26.6 °F 17.5 °F 17.6 °F 69% 29.88 in 10.0 mi South 9.2 mph - N/A   Clear
3:13 AM 26.6 °F 16.8 °F 17.6 °F 69% 29.88 in 10.0 mi South 10.4 mph - N/A   Clear
3:33 AM 28.4 °F 19.1 °F 17.6 °F 64% 29.87 in 10.0 mi South 10.4 mph - N/A   Clear
3:53 AM 28.4 °F 19.1 °F 17.6 °F 64% 29.86 in 10.0 mi South 10.4 mph - N/A   Clear
4:12 AM 28.4 °F 18.0 °F 17.6 °F 64% 29.85 in 10.0 mi South 12.7 mph - N/A   Scattered Clouds
4:33 AM 28.4 °F 17.0 °F 17.6 °F 64% 29.84 in 10.0 mi South 15.0 mph - N/A   Clear
4:53 AM 30.2 °F 18.9 °F 17.6 °F 60% 29.84 in 10.0 mi South 16.1 mph - N/A   Scattered Clouds
5:12 AM 30.2 °F 18.5 °F 19.4 °F 64% 29.83 in 10.0 mi South 17.3 mph 21.9 mph N/A   Scattered Clouds
5:33 AM 30.2 °F 18.5 °F 19.4 °F 64% 29.83 in 10.0 mi South 17.3 mph - N/A   Clear
5:53 AM 30.2 °F 18.9 °F 19.4 °F 64% 29.83 in 10.0 mi South 16.1 mph 23.0 mph N/A   Clear
6:13 AM 30.2 °F 18.1 °F 19.4 °F 64% 29.83 in 10.0 mi South 18.4 mph 23.0 mph N/A   Clear
6:33 AM 30.2 °F 18.5 °F 19.4 °F 64% 29.83 in 10.0 mi South 17.3 mph 25.3 mph N/A   Clear
6:53 AM 32.0 °F 20.8 °F 19.4 °F 60% 29.82 in 10.0 mi South 17.3 mph 24.2 mph N/A   Clear
7:13 AM 32.0 °F 20.1 °F 19.4 °F 60% 29.83 in 10.0 mi South 19.6 mph - N/A   Clear
7:33 AM 32.0 °F 22.1 °F 19.4 °F 60% 29.83 in 10.0 mi SSW 13.8 mph 21.9 mph N/A   Clear
7:53 AM 32.0 °F 21.6 °F 19.4 °F 60% 29.84 in 10.0 mi SSW 15.0 mph 18.4 mph N/A   Clear
8:13 AM 32.0 °F 21.2 °F 19.4 °F 60% 29.84 in 10.0 mi SSW 16.1 mph - N/A   Clear
8:33 AM 32.0 °F 20.8 °F 19.4 °F 60% 29.86 in 10.0 mi SSW 17.3 mph 23.0 mph N/A   Clear
8:53 AM 33.8 °F 22.8 °F 19.4 °F 56% 29.85 in 10.0 mi SSW 18.4 mph 25.3 mph N/A   Clear
9:13 AM 33.8 °F 22.5 °F 21.2 °F 60% 29.85 in 10.0 mi SSW 19.6 mph - N/A   Clear
9:33 AM 33.8 °F 22.5 °F 21.2 °F 60% 29.85 in 10.0 mi SSW 19.6 mph 26.5 mph N/A   Clear
9:53 AM 33.8 °F 22.8 °F 21.2 °F 60% 29.84 in 10.0 mi SSW 18.4 mph 26.5 mph N/A   Clear
10:13 AM 33.8 °F 22.8 °F 21.2 °F 60% 29.84 in 10.0 mi SSW 18.4 mph 28.8 mph N/A   Clear
10:33 AM 35.6 °F 24.5 °F 21.2 °F 56% 29.84 in 10.0 mi SSW 20.7 mph 27.6 mph N/A   Clear
10:53 AM 35.6 °F 25.5 °F 21.2 °F 56% 29.83 in 10.0 mi SSW 17.3 mph 26.5 mph N/A   Clear
11:13 AM 37.4 °F 26.9 °F 21.2 °F 52% 29.83 in 10.0 mi South 20.7 mph 26.5 mph N/A   Clear
11:33 AM 37.4 °F 27.2 °F 21.2 °F 52% 29.82 in 10.0 mi SSW 19.6 mph 25.3 mph 0.01 in   Clear
11:53 AM 37.4 °F 27.5 °F 23.0 °F 56% 29.81 in 10.0 mi SSW 18.4 mph 25.3 mph 0.01 in   Clear
12:13 PM 39.2 °F 29.8 °F 23.0 °F 52% 29.81 in 10.0 mi SSW 18.4 mph 24.2 mph N/A   Clear
12:33 PM 41.0 °F 31.6 °F 23.0 °F 49% 29.81 in 10.0 mi SSW 20.7 mph 25.3 mph 0.01 in   Clear
12:53 PM 41.0 °F 31.9 °F 23.0 °F 49% 29.81 in 10.0 mi SSW 19.6 mph 26.5 mph 0.01 in   Clear
1:13 PM 41.0 °F 32.2 °F 23.0 °F 49% 29.80 in 10.0 mi SSW 18.4 mph 24.2 mph 0.01 in   Clear
1:53 PM 42.8 °F 35.8 °F 24.8 °F 49% 29.80 in 10.0 mi SSW 13.8 mph 24.2 mph 0.01 in   Clear
2:13 PM 42.8 °F 34.5 °F 23.0 °F 46% 29.80 in 10.0 mi SSW 18.4 mph - N/A   Clear
2:33 PM 42.8 °F 35.4 °F 24.8 °F 49% 29.80 in 10.0 mi SSW 15.0 mph - N/A   Clear
2:53 PM 42.8 °F 35.1 °F 23.0 °F 46% 29.80 in 10.0 mi SSW 16.1 mph - N/A   Clear
3:13 PM 42.8 °F 35.4 °F 23.0 °F 46% 29.81 in 10.0 mi SSW 15.0 mph 19.6 mph N/A   Clear
3:33 PM 42.8 °F 36.2 °F 26.6 °F 53% 29.81 in 10.0 mi SSW 12.7 mph - N/A   Clear
3:53 PM 42.8 °F 36.6 °F 26.6 °F 53% 29.81 in 10.0 mi SSW 11.5 mph 16.1 mph N/A   Clear
4:13 PM 42.8 °F 36.2 °F 24.8 °F 49% 29.82 in 10.0 mi SSW 12.7 mph - N/A   Clear
4:33 PM 42.8 °F 37.0 °F 23.0 °F 46% 29.82 in 10.0 mi SSW 10.4 mph 17.3 mph N/A   Clear
4:53 PM 42.8 °F 37.5 °F 24.8 °F 49% 29.83 in 10.0 mi SSW 9.2 mph - N/A   Clear
5:13 PM 42.8 °F 36.2 °F 23.0 °F 46% 29.83 in 10.0 mi SSW 12.7 mph - N/A   Clear
5:33 PM 42.8 °F 35.8 °F 23.0 °F 46% 29.84 in 10.0 mi SSW 13.8 mph 19.6 mph N/A   Clear
5:53 PM 41.0 °F 34.3 °F 23.0 °F 49% 29.85 in 10.0 mi SSW 11.5 mph - N/A   Clear
6:13 PM 41.0 °F 33.9 °F 23.0 °F 49% 29.85 in 10.0 mi SSW 12.7 mph - N/A   Clear
6:33 PM 41.0 °F 34.3 °F 23.0 °F 49% 29.85 in 10.0 mi South 11.5 mph - N/A   Clear
6:53 PM 39.2 °F 32.0 °F 23.0 °F 52% 29.85 in 10.0 mi South 11.5 mph - N/A   Clear
7:13 PM 37.4 °F 29.8 °F 23.0 °F 56% 29.86 in 10.0 mi South 11.5 mph - N/A   Clear
7:33 PM 37.4 °F 29.8 °F 23.0 °F 56% 29.87 in 10.0 mi South 11.5 mph - N/A   Clear
7:53 PM 37.4 °F 30.3 °F 21.2 °F 52% 29.87 in 10.0 mi South 10.4 mph - N/A   Clear
8:13 PM 37.4 °F 30.3 °F 21.2 °F 52% 29.87 in 10.0 mi South 10.4 mph - N/A   Clear
8:33 PM 37.4 °F 29.8 °F 21.2 °F 52% 29.87 in 10.0 mi South 11.5 mph - N/A   Clear
8:53 PM 37.4 °F 30.8 °F 21.2 °F 52% 29.88 in 10.0 mi South 9.2 mph - N/A   Clear
9:13 PM 35.6 °F 28.6 °F 21.2 °F 56% 29.88 in 10.0 mi South 9.2 mph - N/A   Clear
9:32 PM 35.6 °F 27.5 °F 21.2 °F 56% 29.88 in 10.0 mi South 11.5 mph - N/A   Clear
9:53 PM 35.6 °F 27.1 °F 21.2 °F 56% 29.88 in 10.0 mi South 12.7 mph - N/A   Clear
10:13 PM 35.6 °F 28.6 °F 21.2 °F 56% 29.88 in 10.0 mi South 9.2 mph - N/A   Clear
10:32 PM 35.6 °F 28.6 °F 21.2 °F 56% 29.89 in 10.0 mi South 9.2 mph - N/A   Clear
10:53 PM 35.6 °F 27.5 °F 21.2 °F 56% 29.89 in 10.0 mi South 11.5 mph - N/A   Clear
11:13 PM 35.6 °F 27.1 °F 21.2 °F 56% 29.89 in 10.0 mi South 12.7 mph - N/A   Clear
11:32 PM 35.6 °F 28.0 °F 21.2 °F 56% 29.89 in 10.0 mi South 10.4 mph - N/A   Clear
11:53 PM 35.6 °F 28.0 °F 19.4 °F 52% 29.89 in 10.0 mi South 10.4 mph - N/A   Clear